Weather History for Saguache, CO

Change the Weather History Date:

Tuesday, December 4, 2012

  Actual Average (KALS) Record (KALS)
Temperature  
Mean Temperature 35 °F 21 °F  
Max Temperature 46 °F 38 °F 59 °F (1995)
Min Temperature 24 °F 4 °F -17 °F (1952)
Degree Days  
Heating Degree Days 30 44  
Month to date heating degree days 174  
Since 1 July heating degree days 2349  
Cooling Degree Days 0 0  
Month to date cooling degree days 0  
Year to date cooling degree days 51  
Moisture  
Dew Point 12 °F    
Average Humidity 42    
Maximum Humidity 64    
Minimum Humidity 20    
Precipitation  
Precipitation 0.00 in 0.02 in 0.18 in (1969)
Month to date precipitation 0.05  
Year to date precipitation 7.01  
Snow  
Snow 0.00 in 0.20 in 2.70 in (1969)
Month to date snowfall 0.6  
Since 1 July snowfall 6.4  
Snow Depth -    
Sea Level Pressure  
Sea Level Pressure 30.39 in    
Wind  
Wind Speed 12 mph (NNW)    
Max Wind Speed 21 mph    
Max Gust Speed 21 mph    
Visibility 10 miles    
Events      
T = Trace of Precipitation, MM = Missing Value Source: NWS Daily Summary

Daily Weather History Graph

Daily Weather History Graph

Search for Another Location

Airport:

Trip Planner

Search our weather history database for the weather conditions in past years. The results will help you decide how hot, cold, wet, or windy it might be!

Date:

Astronomy

Dec. 04, 2012 Rise Set
Actual Time 7:05 AM MST 4:44 PM MST
Civil Twilight 6:36 AM MST 5:13 PM MST
Nautical Twilight 6:03 AM MST 5:46 PM MST
Astronomical Twilight 5:31 AM MST 6:18 PM MST
Moon 10:31 PM MST (12/4) 11:04 AM MST (12/4)
Length of Visible Light 10h 37m
Length of Day
9h 39m
Waning Gibbous, 69% of the Moon is Illuminated
Dec 4
Waning Gibbous
Dec 6
Last Quarter
Dec 13
New
Dec 19
First Quarter
Dec 28
Full

Hourly Weather History & Observations

Time (MST) Temp. Windchill Dew Point Humidity Pressure Visibility Wind Dir Wind Speed Gust Speed Precip Events Conditions
12:15 AM 33.8 °F 22.2 °F 21.2 °F 60% 30.29 in 10.0 mi NW 20.7 mph - N/A   Clear
12:35 AM 33.8 °F 23.5 °F 19.4 °F 56% 30.29 in 10.0 mi NW 16.1 mph - N/A   Clear
12:54 AM 33.8 °F 25.3 °F 19.4 °F 56% 30.29 in 10.0 mi NNW 11.5 mph 16.1 mph N/A   Clear
1:15 AM 33.8 °F 22.5 °F 19.4 °F 56% 30.29 in 10.0 mi NNW 19.6 mph - N/A   Clear
1:55 AM 33.8 °F 22.8 °F 19.4 °F 56% 30.30 in 10.0 mi NNW 18.4 mph - N/A   Clear
2:15 AM 33.8 °F 24.3 °F 19.4 °F 56% 30.31 in 10.0 mi NNW 13.8 mph 19.6 mph N/A   Clear
2:35 AM 33.8 °F 27.0 °F 21.2 °F 60% 30.31 in 10.0 mi NNW 8.1 mph 11.5 mph N/A   Clear
2:55 AM 33.8 °F 24.8 °F 21.2 °F 60% 30.31 in 10.0 mi NW 12.7 mph - N/A   Clear
3:14 AM 30.2 °F 19.8 °F 19.4 °F 64% 30.32 in 10.0 mi NW 13.8 mph - N/A   Clear
3:35 AM 30.2 °F 17.4 °F 19.4 °F 64% 30.33 in 10.0 mi NW 20.7 mph - N/A   Clear
3:55 AM 30.2 °F 18.9 °F 19.4 °F 64% 30.33 in 10.0 mi NW 16.1 mph - N/A   Clear
4:15 AM 30.2 °F 17.8 °F 19.4 °F 64% 30.34 in 10.0 mi NW 19.6 mph - N/A   Clear
4:33 AM 32.0 °F 22.5 °F 21.2 °F 64% 30.34 in 10.0 mi NW 12.7 mph - N/A   Clear
4:55 AM 30.2 °F 19.3 °F 19.4 °F 64% 30.36 in 10.0 mi NW 15.0 mph - N/A   Clear
5:15 AM 28.4 °F 16.2 °F 17.6 °F 64% 30.35 in 10.0 mi NW 17.3 mph - N/A   Clear
5:35 AM 28.4 °F 17.0 °F 17.6 °F 64% 30.36 in 10.0 mi NW 15.0 mph 20.7 mph N/A   Clear
5:55 AM 28.4 °F 18.0 °F 17.6 °F 64% 30.38 in 10.0 mi NNW 12.7 mph - N/A   Clear
6:15 AM 28.4 °F 20.4 °F 15.8 °F 59% 30.38 in 10.0 mi North 8.1 mph - N/A   Clear
6:35 AM 26.6 °F 17.5 °F 15.8 °F 64% 30.40 in 10.0 mi NNW 9.2 mph - N/A   Clear
6:55 AM 24.8 °F 14.6 °F 14.0 °F 64% 30.40 in 10.0 mi North 10.4 mph - N/A   Clear
7:15 AM 26.6 °F 16.8 °F 14.0 °F 59% 30.41 in 10.0 mi NNW 10.4 mph - N/A   Clear
7:35 AM 28.4 °F 18.5 °F 14.0 °F 55% 30.41 in 10.0 mi NNW 11.5 mph - N/A   Clear
7:55 AM 30.2 °F 21.9 °F 15.8 °F 55% 30.41 in 10.0 mi NNW 9.2 mph - N/A   Clear
8:15 AM 30.2 °F 19.8 °F 14.0 °F 51% 30.44 in 10.0 mi NW 13.8 mph - N/A   Clear
8:35 AM 33.8 °F 24.8 °F 14.0 °F 44% 30.44 in 10.0 mi NW 12.7 mph - N/A   Clear
8:54 AM 33.8 °F 24.8 °F 14.0 °F 44% 30.45 in 10.0 mi NW 12.7 mph - N/A   Clear
9:15 AM 33.8 °F 25.8 °F 10.4 °F 38% 30.45 in 10.0 mi NNW 10.4 mph - N/A   Clear
9:35 AM 33.8 °F 25.8 °F 10.4 °F 38% 30.45 in 10.0 mi NNW 10.4 mph - N/A   Clear
9:55 AM 37.4 °F 30.3 °F 10.4 °F 33% 30.46 in 10.0 mi NNW 10.4 mph - N/A   Clear
10:14 AM 39.2 °F 32.5 °F 8.6 °F 28% 30.46 in 10.0 mi NW 10.4 mph - N/A   Clear
10:35 AM 39.2 °F 35.0 °F 8.6 °F 28% 30.46 in 10.0 mi WNW 5.8 mph - N/A   Clear
11:14 AM 41.0 °F 38.0 °F 10.4 °F 29% 30.45 in 10.0 mi SSE 4.6 mph - N/A   Clear
11:35 AM 42.8 °F 39.3 °F 14.0 °F 31% 30.43 in 10.0 mi South 5.8 mph - N/A   Clear
11:54 AM 42.8 °F 38.0 °F 12.2 °F 29% 30.43 in 10.0 mi SSE 8.1 mph - N/A   Clear
12:15 PM 42.8 °F 37.0 °F 10.4 °F 27% 30.41 in 10.0 mi South 10.4 mph - N/A   Clear
12:35 PM 42.8 °F 38.6 °F 10.4 °F 27% 30.41 in 10.0 mi SSE 6.9 mph - N/A   Clear
12:54 PM 44.6 °F 40.2 °F 10.4 °F 25% 30.40 in 10.0 mi South 8.1 mph - N/A   Clear
1:15 PM 44.6 °F 39.7 °F 12.2 °F 27% 30.40 in 10.0 mi South 9.2 mph - N/A   Clear
1:34 PM 44.6 °F 40.2 °F 10.4 °F 25% 30.40 in 10.0 mi South 8.1 mph - N/A   Clear
1:55 PM 46.4 °F 41.5 °F 10.4 °F 23% 30.39 in 10.0 mi SSE 10.4 mph - N/A   Clear
2:15 PM 46.4 °F 42.4 °F 10.4 °F 23% 30.40 in 10.0 mi South 8.1 mph - N/A   Clear
2:35 PM 46.4 °F 42.9 °F 8.6 °F 22% 30.40 in 10.0 mi SSE 6.9 mph - N/A   Clear
2:55 PM 46.4 °F 43.5 °F 8.6 °F 22% 30.39 in 10.0 mi South 5.8 mph - N/A   Clear
3:15 PM 46.4 °F 45.2 °F 8.6 °F 22% 30.39 in 10.0 mi SE 3.5 mph - N/A   Clear
3:35 PM 46.4 °F 44.3 °F 6.8 °F 20% 30.40 in 10.0 mi South 4.6 mph - N/A   Clear
3:55 PM 44.6 °F 42.2 °F 6.8 °F 21% 30.39 in 10.0 mi SSE 4.6 mph - N/A   Clear
4:15 PM 44.6 °F 42.2 °F 6.8 °F 21% 30.39 in 10.0 mi ESE 4.6 mph - N/A   Clear
4:35 PM 41.0 °F 39.0 °F 6.8 °F 24% 30.40 in 10.0 mi ESE 3.5 mph - N/A   Clear
4:55 PM 37.4 °F 33.8 °F 5.0 °F 26% 30.39 in 10.0 mi East 4.6 mph - N/A   Clear
5:15 PM 33.8 °F 30.8 °F 5.0 °F 30% 30.40 in 10.0 mi NE 3.5 mph - N/A   Clear
5:35 PM 33.8 °F 28.6 °F 5.0 °F 30% 30.40 in 10.0 mi NNE 5.8 mph - N/A   Clear
5:54 PM 33.8 °F - 5.0 °F 30% 30.40 in 10.0 mi Calm Calm - N/A   Clear
6:15 PM 32.0 °F - 6.8 °F 35% 30.40 in 10.0 mi Calm Calm - N/A   Clear
6:35 PM 30.2 °F - 6.8 °F 37% 30.40 in 10.0 mi Calm Calm - N/A   Clear
6:55 PM 28.4 °F 22.2 °F 5.0 °F 37% 30.41 in 10.0 mi North 5.8 mph - N/A   Clear
7:15 PM 28.4 °F - 5.0 °F 37% 30.41 in 10.0 mi Calm Calm - N/A   Clear
7:35 PM 28.4 °F - 6.8 °F 40% 30.41 in 10.0 mi Calm Calm - N/A   Clear
7:55 PM 33.8 °F 27.0 °F 12.2 °F 41% 30.41 in 10.0 mi NNE 8.1 mph - N/A   Clear
8:15 PM 32.0 °F 26.4 °F 8.6 °F 38% 30.41 in 10.0 mi North 5.8 mph - N/A   Clear
8:34 PM 30.2 °F 23.4 °F 8.6 °F 40% 30.41 in 10.0 mi NW 6.9 mph - N/A   Clear
8:55 PM 30.2 °F 25.4 °F 8.6 °F 40% 30.42 in 10.0 mi NW 4.6 mph - N/A   Clear
9:15 PM 28.4 °F 22.2 °F 6.8 °F 40% 30.43 in 10.0 mi NNW 5.8 mph - N/A   Clear
9:35 PM 26.6 °F 18.2 °F 6.8 °F 43% 30.43 in 10.0 mi NW 8.1 mph - N/A   Clear
9:55 PM 28.4 °F 20.4 °F 8.6 °F 43% 30.43 in 10.0 mi NNW 8.1 mph - N/A   Clear
10:15 PM 28.4 °F - 8.6 °F 43% 30.43 in 10.0 mi Calm Calm - N/A   Clear
10:35 PM 30.2 °F 25.4 °F 8.6 °F 40% 30.42 in 10.0 mi NNW 4.6 mph - N/A   Clear
10:55 PM 30.2 °F 22.6 °F 8.6 °F 40% 30.43 in 10.0 mi NW 8.1 mph - N/A   Clear
11:15 PM 33.8 °F 24.3 °F 10.4 °F 38% 30.42 in 10.0 mi NNW 13.8 mph - N/A   Clear
11:34 PM 30.2 °F 21.3 °F 8.6 °F 40% 30.41 in 10.0 mi NNW 10.4 mph - N/A   Clear
11:55 PM 30.2 °F 25.4 °F 8.6 °F 40% 30.42 in 10.0 mi North 4.6 mph - N/A   Clear